Location: Bidwell Hollow
(37.7387°N, 90.1707°W)
Time: 02:19:37
(UTC+00:00)

Tiros 1 despin weight - Pass Details

Date: 19 May 2026
Orbit: 554 x 591 km, 48.2° (Epoch: 6 June)

Event Time Altitude Azimuth Distance (km) Brightness Sun altitude
Rises 08:47:59 0° 225° (SW) 2,772 - -19.8°
Reaches altitude 10° 08:50:17 10° 222° (SW) 1,870 - -19.5°
Exits shadow 08:53:27 45° 198° (SSW) 779 ? -19.1°
Maximum altitude 08:54:30 61° 142° (SE) 644 ? -19.0°
Drops below altitude 10° 08:58:41 10° 62° (ENE) 1,856 ? -18.4°
Sets 09:00:57 0° 59° (ENE) 2,749 ? -18.1°
